Погода в Сосновом Бору

Россия / Санкт-Петербург и Ленинградская область     59°54′15″N   29°05′31″E
темп.,
°C
ветер,
м/с
пор.,
м/с
влажн.,
%
обл.,
%
осадки,
мм/ч
давл.,
гПа
погр.,
м
3 марта, ср
ср300:00−1зсз712890 0.0 1019204
03:00−2зсз713900 0.0 1019242
06:00−2з6119325 0.0 1017223
09:00−2з7119519 0.0 1016279
12:000з8138930 0.0 1013411
15:00+1з10168565 0.0 1010469
18:00+1зюз91787100 0.0 1006373
21:00+1з91592100 0.4 1004352
4 марта, чт
чт400:00−1зсз71385100 0.4 1003285
03:00−3зсз6108850 0.4 1004183
06:00−4сз57900 0.0 1003138
09:00−5сз46920 0.0 1004143
12:00−4сз579028 0.0 1004404
15:00−4ссз7108262 0.1 1005754
18:00−5ссз598456 0.0 1005235
21:00−6сз588439 0.0 1006153
5 марта, пт
пт500:00−7сз58875 0.0 1007148
03:00−8сз58856 0.0 1008189
06:00−9сз58886 0.0 1009183
09:00−9сз48926 0.0 1010218
12:00−8ссз468797 0.0 1012477
15:00−7ссз458298 0.1 1014589
18:00−8сз568237 0.0 1014102
21:00−9сз337928 0.0 101622
6 марта, сб
сб600:00−8сз348798 0.0 101745
03:00−9сз448978 0.0 101846
06:00−9зсз34900 0.0 101722
09:00−8юз45930 0.0 101672
12:00−5юз6118075 0.0 1013357
15:00−4ююз10159387 0.3 1008748
18:00−3юз121996100 1.7 1001716
21:00−1зюз152296100 7.6 995810
7 марта, вс
вс700:000з142089100 1.3 990702
03:00−7зсз141957100 1.4 9921100
06:00−9зсз715660 0.0 992292
09:00−9зсз9176820 0.0 989614
12:00−8зсз121691100 0.4 9891186
15:00−5ссз131786100 1.4 9921356
18:00−7ссз81283100 0.1 997378
21:00−9ссз7118897 0.1 1002257